Showing default

LILACSAT 2, 40908

Orbit data source: Space-Track

LILACSAT 2, 40908 is a payload satellite owned by Harbin (CN) in SSO that was launched on Sat, 19 Sep 2015 UTC via a CHANG ZHENG 6 launch vehicle from the Taiyaun Space Center, China (TSC). Payload-class satellites include a variety of spacecraft equipped with specific instruments for various scientific and technological missions. These include communications satellites like Starlink; space stations such as the ISS; scientific satellites like the Hubble; Earth observation satellites from companies like Planet Labs, Umbra, and HawkEye 360; GPS; miniature CubeSats for education and research; and military/defense satellites.

Loading next visibility...
Identifier
40908, 2015-049K
Orbit
SSO
Country
Flag of CNCN / PRC
Related business
Manufacturer
Harbin
Mission
Operational Amateur Com/Tech
Bus & Motor
CAS-3H, Unknown motor
Mass
11 kg wet, 11 kg dry
Launch date (UTC)
2015-09-19 (10 years ago)
Launch vehicle
CHANG ZHENG 6
Launch site
Taiyaun Space Center, China (TSC)
Object type
Payload
Rocket body
Debris
Shape & HBR
Box, 0.1 m
Radar Cross Section
0.060 m², Small (<0.1 m²)

Expand to show TLE details & history
Last TLE update: 4 hours ago

TLE from 4 hours ago
0 LILACSAT 2
1 40908U 15049K   25354.50906456  .00010923  00000-0  23379-3 0  9996
2 40908  97.4898  20.1311 0008082 168.1845 191.9595 15.44942166568108
Epoch: 2025-12-20T12:13Z
TLE epoch observation values (Epoch: 2025-12-20T12:13:03.177Z)
Latitude
-0.00001°
Longitude
107.53302°
Altitude
440.055 km
Speed
7.645 km/s
True Right ascension
01h 20m 31s
True Declination
0° 00' 00"
Sunlit
Object was in daylight at epoch
Visualization orbit readout
Latitude
Unknown
Longitude
Unknown
Altitude
Unknown
Speed
Unknown
Apparent Right ascension
Unknown
Apparent Declination
Unknown
Sunlit
N/A
Visualization observer readout
Local Sidereal Time
14:45:47
Azimuth
Unknown
Elevation
Unknown
Doppler factor
Unknown
Orbital elements
Apogee altitude
433.985 km
Perigee altitude
422.983 km
Semi-major axis
6,806.621 km
Eccentricity
0.00081
Inclination
97.4898°
RAAN
20.1311°
Arg. of periapsis
168.1845°
True anomaly
191.94033°
Mean anomaly
191.9595°
Eccentric anomaly
191.94991°
Mean motion
3.86497 °/min
Orbital period
93.14 mins
BSTAR
0.00023379
Loading maneuver chart data...
Computing Atmospheric mass density...
Loading historical data...
Loading historical data...
Loading historical data...
Loading historical data...
Loading historical data...
Loading historical data...
Loading historical data...

Documentation

Showing up to 5 results
|